Weather History for KRSN - October, 2012

Change the Weather History Date:

Tuesday, October 9, 2012

  Actual Average Record
Temperature  
Mean Temperature 56 °F -  
Max Temperature 74 °F 78 °F 96 °F (2001)
Min Temperature 38 °F 53 °F 37 °F (2006)
Degree Days  
Heating Degree Days 9    
Growing Degree Days 6 (Base 50)    
Moisture  
Dew Point 50 °F    
Average Humidity 79    
Maximum Humidity 100    
Minimum Humidity 49    
Precipitation  
Precipitation 0.00 in - - ()
Sea Level Pressure  
Sea Level Pressure 30.11 in    
Wind  
Wind Speed 2 mph (South)    
Max Wind Speed 9 mph    
Max Gust Speed -    
Visibility 9 miles    
Events      
Averages and records for this station are not official NWS values.
T = Trace of Precipitation, MM = Missing Value Source: NWS Daily Summary

Daily Weather History Graph

Daily Weather History Graph

Search for Another Location

Airport or City:

Trip Planner

Search our weather history database for the weather conditions in past years. The results will help you decide how hot, cold, wet, or windy it might be!

Date:

Astronomy

Oct. 09, 2012 Rise Set
Actual Time 7:10 AM CDT 6:44 PM CDT
Civil Twilight 6:45 AM CDT 7:08 PM CDT
Nautical Twilight 6:17 AM CDT 7:37 PM CDT
Astronomical Twilight 5:48 AM CDT 8:05 PM CDT
Moon 1:06 AM CDT (10/9) 2:54 PM CDT (10/9)
Length of Visible Light 12h 23m
Length of Day
11h 33m
Last Quarter, 36% of the Moon is Illuminated
Oct 9
Last Quarter
Oct 15
New
Oct 21
First Quarter
Oct 29
Full
Nov 6
Last Quarter

Hourly Weather History & Observations

Time (CDT) Temp. Dew Point Humidity Pressure Visibility Wind Dir Wind Speed Gust Speed Precip Events Conditions
12:15 AM 41.9 °F 41.9 °F 100% 30.19 in 10.0 mi Calm Calm - N/A   Clear
12:35 AM 41.5 °F 41.5 °F 100% 30.18 in 10.0 mi Calm Calm - N/A   Clear
12:55 AM 41.4 °F 41.4 °F 100% 30.17 in 10.0 mi Calm Calm - N/A   Clear
1:15 AM 41.0 °F 41.0 °F 100% 30.17 in 10.0 mi Calm Calm - N/A   Clear
1:55 AM 40.8 °F 40.8 °F 100% 30.17 in 7.0 mi Calm Calm - N/A   Clear
2:15 AM 40.3 °F 40.3 °F 100% 30.16 in 10.0 mi Calm Calm - N/A   Clear
2:55 AM 40.1 °F 40.1 °F 100% 30.16 in 10.0 mi Calm Calm - N/A   Clear
3:15 AM 40.1 °F 40.1 °F 100% 30.16 in 7.0 mi Calm Calm - N/A   Clear
3:35 AM 39.6 °F 39.6 °F 100% 30.16 in 7.0 mi Calm Calm - N/A   Clear
4:15 AM 40.1 °F 40.1 °F 100% 30.15 in 7.0 mi Calm Calm - N/A   Clear
4:35 AM 39.6 °F 39.6 °F 100% 30.15 in 7.0 mi Calm Calm - N/A   Clear
4:55 AM 39.4 °F 39.4 °F 100% 30.16 in 7.0 mi Calm Calm - N/A   Clear
5:15 AM 39.2 °F 39.2 °F 100% 30.16 in 7.0 mi Calm Calm - N/A   Clear
5:35 AM 39.4 °F 39.4 °F 100% 30.16 in 7.0 mi Calm Calm - N/A   Clear
5:55 AM 39.0 °F 39.0 °F 100% 30.16 in 5.0 mi Calm Calm - N/A   Clear
6:15 AM 38.7 °F 38.7 °F 100% 30.17 in 7.0 mi Calm Calm - N/A   Clear
6:55 AM 38.5 °F 38.5 °F 100% 30.17 in 7.0 mi Calm Calm - N/A   Clear
7:15 AM 38.5 °F 38.5 °F 100% 30.17 in 5.0 mi Calm Calm - N/A   Clear
7:55 AM 40.1 °F 40.1 °F 100% 30.18 in 7.0 mi Calm Calm - N/A   Clear
8:15 AM 43.0 °F 43.0 °F 100% 30.18 in 10.0 mi Calm Calm - N/A   Clear
8:35 AM 46.2 °F 46.2 °F 100% 30.18 in 10.0 mi Calm Calm - N/A   Clear
8:55 AM 49.6 °F 49.6 °F 100% 30.18 in 10.0 mi SE 3.5 mph - N/A   Clear
9:15 AM 53.1 °F 49.8 °F 89% 30.19 in 10.0 mi SE 3.5 mph - N/A   Clear
9:35 AM 54.5 °F 48.7 °F 81% 30.19 in 10.0 mi South 4.6 mph - N/A   Clear
9:55 AM 56.5 °F 49.8 °F 78% 30.19 in 10.0 mi South 6.9 mph - N/A   Clear
10:15 AM 58.3 °F 48.7 °F 71% 30.19 in 10.0 mi South 6.9 mph - N/A   Clear
10:35 AM 60.3 °F 48.7 °F 66% 30.19 in 10.0 mi South 8.1 mph - N/A   Clear
10:55 AM 61.2 °F 49.3 °F 65% 30.18 in 10.0 mi South 5.8 mph - N/A   Clear
11:15 AM 62.6 °F 49.8 °F 63% 30.18 in 10.0 mi South 8.1 mph - N/A   Clear
11:35 AM 63.7 °F 49.5 °F 60% 30.17 in 10.0 mi SE 3.5 mph - N/A   Clear
11:55 AM 64.2 °F 49.6 °F 59% 30.16 in 10.0 mi Calm Calm - N/A   Clear
12:15 PM 65.8 °F 50.2 °F 57% 30.15 in 10.0 mi Calm Calm - N/A   Clear
12:35 PM 67.3 °F 50.9 °F 56% 30.14 in 10.0 mi SSW 8.1 mph - N/A   Clear
12:55 PM 67.8 °F 50.9 °F 55% 30.13 in 10.0 mi SSW 6.9 mph - N/A   Clear
1:15 PM 68.4 °F 51.1 °F 54% 30.12 in 10.0 mi West 4.6 mph - N/A   Clear
1:35 PM 69.1 °F 51.4 °F 53% 30.11 in 10.0 mi WNW 3.5 mph - N/A   Clear
1:55 PM 70.5 °F 52.3 °F 52% 30.09 in 10.0 mi SSW 4.6 mph - N/A   Clear
2:15 PM 71.1 °F 52.7 °F 52% 30.08 in 10.0 mi Calm Calm - N/A   Clear
2:35 PM 72.0 °F 53.1 °F 51% 30.07 in 10.0 mi South 4.6 mph - N/A   Clear
2:55 PM 72.9 °F 53.1 °F 50% 30.06 in 10.0 mi SSW 6.9 mph - N/A   Clear
3:15 PM 73.4 °F 53.8 °F 50% 30.04 in 10.0 mi SSE 6.9 mph - N/A   Clear
3:35 PM 74.3 °F 54.1 °F 49% 30.03 in 10.0 mi SSW 5.8 mph - N/A   Clear
3:55 PM 73.6 °F 54.0 °F 50% 30.02 in 10.0 mi SSE 6.9 mph - N/A   Clear
4:15 PM 74.3 °F 54.3 °F 50% 30.02 in 10.0 mi SSW 4.6 mph - N/A   Clear
4:35 PM 73.9 °F 54.5 °F 51% 30.01 in 10.0 mi South 4.6 mph - N/A   Clear
4:55 PM 74.5 °F 55.0 °F 51% 30.01 in 10.0 mi South 9.2 mph - N/A   Clear
5:15 PM 73.9 °F 55.6 °F 53% 30.01 in 10.0 mi South 6.9 mph - N/A   Clear
5:35 PM 73.8 °F 56.1 °F 54% 30.00 in 10.0 mi South 5.8 mph - N/A   Clear
5:55 PM 72.7 °F 56.7 °F 57% 30.00 in 10.0 mi South 4.6 mph - N/A   Clear
6:15 PM 71.4 °F 58.1 °F 63% 30.00 in 10.0 mi SSE 3.5 mph - N/A   Clear
6:35 PM 66.4 °F 60.1 °F 80% 30.00 in 10.0 mi SSE 3.5 mph - N/A   Clear
6:55 PM 64.0 °F 60.4 °F 88% 30.00 in 10.0 mi SSE 3.5 mph - N/A   Clear
7:15 PM 64.6 °F 60.1 °F 85% 30.00 in 10.0 mi SSE 3.5 mph - N/A   Clear
7:35 PM 63.5 °F 59.4 °F 86% 30.01 in 10.0 mi Calm Calm - N/A   Clear
7:55 PM 61.7 °F 61.3 °F 99% 30.01 in 10.0 mi Calm Calm - N/A   Scattered Clouds
8:15 PM 62.6 °F 62.2 °F 99% 30.02 in 10.0 mi Calm Calm - N/A   Overcast
8:35 PM 62.2 °F 61.2 °F 96% 30.02 in 10.0 mi South 3.5 mph - N/A   Mostly Cloudy
8:55 PM 65.8 °F 59.7 °F 81% 30.03 in 10.0 mi SSE 5.8 mph - N/A   Overcast
9:15 PM 65.3 °F 59.2 °F 81% 30.03 in 10.0 mi SSE 5.8 mph - N/A   Overcast
9:35 PM 65.3 °F 59.4 °F 81% 30.04 in 10.0 mi SSE 4.6 mph - N/A   Overcast
9:55 PM 65.7 °F 59.2 °F 80% 30.05 in 10.0 mi SSE 5.8 mph - N/A   Overcast
10:15 PM 65.5 °F 59.4 °F 81% 30.07 in 10.0 mi Calm Calm - N/A   Overcast
10:35 PM 65.5 °F 59.9 °F 82% 30.08 in 10.0 mi South 3.5 mph - N/A   Overcast
10:55 PM 65.1 °F 60.3 °F 84% 30.08 in 10.0 mi Calm Calm - N/A   Overcast
11:15 PM 65.3 °F 59.9 °F 83% 30.08 in 10.0 mi SSE 3.5 mph - N/A   Overcast
11:35 PM 64.8 °F 59.9 °F 84% 30.08 in 10.0 mi South 3.5 mph - N/A   Overcast
11:55 PM 64.6 °F 59.9 °F 85% 30.08 in 10.0 mi South 3.5 mph - N/A   Overcast